Location: El Álamo
(40.2307°N, 3.9945°W)
Time: 04:23:10
(UTC+00:00)

Cosmos 1833 Rocket - Pass Details

Date: 19 May 2025
Orbit: 832 x 838 km, 71.0° (Epoch: 23 June)

Event Time Altitude Azimuth Distance (km) Brightness Sun altitude
Rises 22:02:54 0° 229° (SW) 3,377 5.8 -22.7°
Reaches altitude 10° 22:05:35 10° 239° (WSW) 2,447 5.1 -22.9°
Maximum altitude 22:10:34 32° 302° (WNW) 1,395 4.3 -23.4°
Drops below altitude 10° 22:15:37 10° 5° (N) 2,460 5.8 -23.9°
Sets 22:18:20 0° 16° (NNE) 3,398 6.5 -24.2°
